Wind_Speed
13 11 12 14 13 14 12 11 11 9 11 11 10 13 17 20 22 22 21 21 21 21 20 20 19 17 15 14 13 13 14 16 17 19 20 20 19 17 14 12 10 8 7
15 14 15 18 18 16 15 15 15 12 10 11 11 13 17 21 24 25 25 25 25 25 24 24 23 22 20 19 18 16 16 18 18 19 21 22 21 19 17 15 12 10 8
17 17 17 19 19 17 16 20 22 20 15 11 11 14 17 20 22 25 25 25 25 24 24 23 22 21 20 21 20 18 17 19 20 19 20 21 22 20 17 15 13 12 10
19 19 19 20 19 19 20 23 24 23 19 15 13 15 19 21 23 25 25 24 23 22 22 22 20 19 19 20 20 18 18 20 21 20 20 20 20 19 16 15 14 13 12
20 20 20 20 20 21 23 25 25 24 22 19 18 18 21 23 23 24 25 24 24 23 23 24 23 21 20 20 20 19 18 20 23 22 21 20 20 18 16 16 15 14 13
21 20 21 21 21 24 26 27 26 25 25 25 23 22 23 24 24 23 24 24 24 24 24 25 25 24 23 21 18 16 16 19 24 24 23 21 21 19 18 16 15 15 14
21 20 21 22 23 26 29 28 26 26 27 28 28 26 25 25 25 24 24 24 25 24 23 25 25 23 24 24 20 16 16 19 24 25 24 23 22 21 19 17 16 15 15
22 21 22 24 26 27 27 27 26 26 28 29 30 29 27 26 24 24 25 25 25 25 23 23 24 23 24 25 23 20 19 20 23 26 26 25 24 22 21 20 18 16 16
24 24 25 26 26 26 26 26 26 26 26 28 29 29 28 28 25 26 28 26 26 25 24 23 24 23 23 24 23 22 22 22 23 26 27 27 26 24 23 22 20 18 17
26 25 26 26 25 24 24 24 25 25 26 27 27 27 27 27 28 25 26 26 26 26 24 25 24 23 23 23 22 23 23 22 23 25 26 27 27 26 26 24 22 21 21
26 26 26 25 23 22 23 24 25 26 27 27 26 27 27 26 27 22 21 23 25 26 25 25 26 25 24 23 23 23 24 23 23 24 26 27 28 28 27 27 25 24 24
26 26 25 22 21 22 23 24 26 26 26 26 26 27 28 28 27 23 22 23 25 25 25 25 26 27 25 24 24 24 25 25 24 25 26 26 27 27 27 27 27 27 26
27 27 25 23 23 23 24 26 27 25 23 23 24 26 28 28 26 24 22 22 23 24 24 23 24 25 26 26 25 26 27 27 26 25 25 26 26 25 24 24 25 26 25
27 27 27 26 24 24 24 26 27 24 21 21 22 23 25 27 27 24 23 23 24 24 23 21 21 22 22 23 24 24 27 28 27 26 25 25 24 23 23 22 22 23 23
27 28 29 28 26 24 23 23 24 23 20 20 18 17 17 20 22 23 24 25 27 26 23 21 20 19 18 18 19 21 24 27 27 26 25 24 24 24 24 23 22 21 20
29 30 31 30 29 26 23 23 22 21 20 19 16 15 15 16 17 18 20 22 25 27 25 24 22 20 19 18 17 17 20 24 27 27 25 25 25 26 26 24 22 21 20
30 30 29 28 27 26 24 23 21 20 19 18 16 15 15 15 16 16 16 18 22 26 28 27 26 23 22 21 20 19 17 20 24 28 28 27 28 28 28 26 25 23 22
26 27 27 26 24 23 23 23 21 19 19 18 16 15 15 16 16 16 15 16 19 24 27 30 31 29 27 25 23 22 21 22 22 24 26 27 28 29 29 28 27 26 25
21 22 23 25 25 23 21 22 21 19 19 19 18 17 16 15 16 17 16 15 17 20 24 27 29 31 30 28 27 26 26 25 25 24 24 25 27 28 28 27 26 26 26
18 20 21 23 25 24 22 22 23 21 20 21 22 21 20 17 16 17 18 18 18 19 22 23 25 28 30 30 29 29 30 30 29 27 27 28 28 28 28 27 27 27 27
17 19 20 20 21 24 24 24 25 25 23 23 24 24 24 22 21 20 20 20 20 20 22 24 26 26 27 29 30 32 32 32 32 31 31 30 29 29 30 30 30 29 29
16 17 17 18 20 23 25 26 26 26 26 26 26 26 26 26 24 24 24 24 23 23 24 25 27 28 29 31 33 35 36 34 34 35 34 31 30 31 33 32 32 32 32
17 17 17 16 17 18 20 22 23 24 26 27 27 26 26 26 26 26 25 25 25 25 25 24 25 27 28 30 32 35 38 39 38 36 34 33 32 34 34 33 33 33 34
18 19 19 17 16 16 16 16 17 19 20 22 24 25 25 26 26 26 25 25 26 26 25 25 25 26 27 26 28 32 36 40 41 39 36 34 35 35 34 33 33 33 33
18 18 18 18 17 17 17 18 19 21 22 21 22 24 25 26 26 25 26 26 25 25 25 25 25 26 26 26 26 28 32 37 41 43 39 36 37 37 35 35 35 35 35
16 16 16 16 16 16 17 18 20 21 23 22 23 25 25 25 24 22 23 23 23 23 23 24 24 25 25 25 25 25 27 33 40 44 44 41 41 41 39 38 37 36 37
Wind_Direction
304 305 312 322 326 332 346 350 352 353 346 322 283 257 247 240 237 239 241 244 248 252 255 256 256 255 256 252 247 247 240 238 238 232 224 217 212 213 221 226 234 233 226
302 297 302 313 314 317 328 336 336 335 331 323 293 262 250 246 242 241 242 245 248 251 253 255 257 258 256 251 246 246 241 237 239 235 226 223 223 223 222 223 229 231 228
300 298 301 308 306 304 313 321 321 319 315 307 296 271 255 251 250 248 245 244 246 247 248 250 252 254 253 247 243 244 242 236 235 232 227 227 223 218 215 220 230 233 231
296 296 298 299 294 292 301 306 306 304 304 300 293 276 261 253 251 251 248 244 242 242 241 241 245 250 250 244 241 243 242 235 230 228 226 222 219 217 218 225 234 240 237
285 286 285 286 281 282 290 295 295 293 294 297 291 279 267 257 252 249 246 245 241 237 238 240 244 246 245 241 240 240 238 234 227 225 224 221 218 221 225 229 235 241 241
273 272 273 275 274 278 283 288 289 287 290 292 290 281 273 264 254 249 246 247 242 237 238 241 242 242 240 235 236 237 237 232 225 223 222 222 222 225 230 231 235 240 242
267 265 269 269 272 278 281 282 283 285 287 287 285 279 274 270 260 250 247 245 242 239 239 240 240 239 237 232 230 234 235 230 225 223 222 223 226 228 233 235 237 240 244
266 264 266 268 273 277 277 278 282 284 283 283 281 280 276 268 262 254 248 245 241 240 239 240 238 235 236 233 229 231 233 228 226 226 226 228 230 231 235 238 240 241 244
268 269 270 271 273 275 275 277 281 283 282 280 279 277 273 266 263 260 248 244 243 241 240 238 235 234 235 234 231 232 232 229 228 228 229 232 234 235 237 239 242 245 249
268 273 275 277 277 276 276 278 280 282 283 283 281 276 270 268 264 269 249 242 243 242 240 236 232 232 233 233 234 233 230 231 233 232 232 234 236 238 240 242 246 250 254
268 273 276 281 283 282 283 282 281 283 285 283 278 271 269 271 265 269 257 245 244 243 240 236 231 233 233 233 236 234 229 230 235 237 237 238 239 241 243 244 246 249 251
271 274 278 287 293 294 291 287 285 288 287 282 276 269 267 269 268 267 263 249 244 241 239 234 230 233 236 235 235 234 229 227 232 237 240 241 243 243 244 243 243 243 245
272 277 284 292 294 293 292 289 286 289 286 282 278 272 266 265 267 266 264 252 240 237 236 233 230 233 238 238 237 236 232 229 231 237 241 242 242 244 244 242 240 240 242
281 287 292 294 294 293 293 290 286 287 284 283 282 275 267 262 263 265 262 258 242 229 228 230 230 232 235 237 237 238 234 230 231 235 239 239 239 241 243 242 243 242 243
289 292 293 293 293 291 291 291 290 288 282 282 279 273 270 265 262 261 261 258 242 224 224 230 231 231 233 233 233 236 234 232 232 233 236 236 236 239 241 247 246 244 243
295 295 295 294 290 286 283 287 289 286 278 275 271 265 263 262 262 259 259 251 234 223 222 229 233 234 233 231 232 234 235 234 236 236 237 236 236 240 245 252 250 246 242
296 296 295 294 293 287 280 280 282 279 272 266 262 258 254 259 259 258 255 245 231 223 221 226 232 236 238 238 239 240 240 238 239 239 239 238 238 241 247 252 251 247 243
302 297 293 293 295 289 279 276 276 271 264 260 258 254 250 253 253 252 251 243 234 226 225 227 234 238 240 242 245 245 246 244 241 239 239 240 239 240 243 245 245 243 242
305 299 293 289 288 286 277 272 271 267 259 254 254 254 252 251 247 245 245 246 242 234 230 231 235 238 241 243 245 246 247 248 246 241 240 240 239 239 240 241 242 243 245
301 296 293 287 280 276 272 269 267 265 259 253 251 252 253 251 247 246 243 242 244 242 235 235 240 244 244 243 243 244 246 245 246 245 243 242 242 243 243 245 247 249 252
299 296 294 287 277 270 266 266 266 265 262 255 250 249 250 251 248 246 243 242 244 246 244 244 247 249 247 246 245 245 246 245 243 242 243 244 246 249 248 246 246 247 249
298 299 299 293 282 273 267 263 262 264 264 259 254 249 248 250 251 248 245 244 246 248 250 251 251 252 252 250 250 249 246 245 244 241 241 245 249 250 251 249 248 247 247
301 300 297 292 287 281 272 264 260 262 263 261 257 253 249 249 250 250 248 246 247 250 252 255 256 256 256 254 253 253 248 243 242 242 242 246 248 249 250 251 252 251 250
302 299 296 290 283 278 275 273 269 270 272 267 259 254 252 250 249 249 249 249 249 250 252 254 258 260 261 262 260 257 252 245 241 243 245 248 251 250 250 252 254 254 254
300 296 293 290 286 281 278 276 274 274 275 272 263 255 251 250 249 250 252 253 253 253 253 254 256 258 261 263 266 264 256 248 244 244 247 250 252 252 254 257 257 256 256
301 296 294 290 287 284 282 279 275 272 270 268 263 257 253 251 250 251 253 255 257 257 256 256 257 257 260 263 264 263 257 250 245 246 248 250 252 256 258 259 259 258 257
Height
5886 5885 5883 5881 5880 5878 5878 5877 5875 5875 5874 5873 5874 5876 5876 5876 5877 5878 5878 5879 5881 5883 5884 5885 5886 5887 5888 5889 5889 5890 5891 5892 5893 5895 5896 5898 5900 5902 5904 5905 5906 5907 5908
5882 5882 5880 5879 5878 5876 5875 5874 5873 5873 5872 5871 5871 5872 5873 5873 5874 5874 5875 5875 5876 5878 5879 5881 5882 5883 5884 5885 5887 5887 5888 5889 5890 5891 5893 5895 5897 5900 5902 5903 5904 5905 5906
5879 5879 5878 5876 5875 5873 5871 5871 5869 5868 5869 5868 5868 5869 5869 5869 5870 5870 5870 5870 5871 5872 5874 5876 5878 5879 5880 5881 5883 5884 5885 5886 5887 5889 5890 5892 5894 5897 5899 5900 5901 5902 5904
5875 5875 5874 5873 5871 5870 5868 5867 5866 5864 5864 5864 5864 5864 5864 5864 5864 5865 5865 5865 5866 5867 5869 5871 5873 5875 5876 5877 5879 5880 5882 5882 5884 5886 5887 5890 5892 5894 5896 5898 5899 5900 5901
5870 5870 5869 5867 5866 5865 5864 5862 5861 5860 5859 5859 5859 5859 5859 5858 5859 5860 5861 5861 5861 5862 5864 5866 5868 5870 5871 5873 5874 5876 5877 5879 5881 5883 5885 5888 5890 5892 5893 5895 5896 5897 5898
5865 5864 5864 5862 5861 5860 5859 5857 5856 5855 5855 5854 5854 5853 5852 5852 5853 5854 5855 5856 5856 5857 5859 5861 5863 5864 5866 5868 5870 5871 5873 5875 5877 5880 5882 5885 5887 5889 5890 5892 5894 5895 5896
5860 5859 5859 5858 5857 5856 5854 5853 5851 5851 5850 5849 5849 5848 5846 5846 5847 5848 5850 5851 5852 5853 5854 5856 5858 5859 5861 5864 5866 5867 5869 5871 5874 5877 5879 5882 5884 5886 5888 5890 5891 5892 5893
5855 5854 5854 5853 5852 5850 5848 5847 5846 5845 5844 5843 5842 5842 5841 5841 5841 5842 5844 5845 5846 5848 5849 5851 5852 5854 5857 5859 5861 5863 5865 5867 5870 5873 5876 5878 5881 5883 5885 5887 5889 5890 5891
5850 5849 5848 5847 5845 5844 5843 5842 5841 5839 5838 5837 5836 5835 5834 5834 5835 5837 5838 5839 5840 5842 5844 5845 5847 5849 5852 5855 5857 5859 5861 5863 5866 5869 5872 5875 5877 5879 5881 5883 5885 5886 5887
5843 5843 5843 5841 5839 5838 5837 5836 5835 5833 5831 5830 5829 5829 5828 5828 5829 5830 5831 5833 5835 5836 5838 5840 5842 5845 5847 5850 5853 5855 5857 5859 5862 5865 5868 5870 5872 5874 5877 5879 5881 5882 5884
5838 5837 5837 5835 5834 5833 5832 5830 5829 5827 5825 5824 5823 5822 5822 5822 5823 5824 5826 5828 5829 5831 5833 5835 5838 5841 5843 5846 5848 5850 5852 5855 5857 5860 5863 5866 5868 5870 5872 5874 5876 5878 5880
5831 5831 5830 5830 5829 5827 5825 5824 5823 5821 5819 5817 5817 5816 5817 5817 5818 5819 5821 5822 5824 5826 5828 5830 5832 5835 5838 5841 5843 5846 5848 5850 5853 5856 5858 5861 5863 5865 5867 5868 5871 5873 5875
5824 5824 5824 5823 5822 5820 5818 5817 5816 5815 5813 5812 5811 5810 5811 5812 5813 5814 5815 5817 5819 5821 5823 5825 5827 5830 5833 5835 5838 5840 5843 5845 5848 5851 5853 5856 5858 5860 5862 5863 5866 5868 5871
5818 5818 5817 5815 5814 5813 5812 5811 5810 5809 5808 5806 5805 5804 5804 5806 5808 5809 5811 5812 5814 5817 5819 5821 5824 5826 5828 5830 5832 5835 5837 5840 5843 5846 5849 5851 5853 5855 5858 5860 5862 5864 5866
5812 5811 5809 5807 5807 5806 5806 5805 5804 5803 5802 5801 5799 5798 5799 5800 5803 5804 5805 5806 5809 5812 5815 5817 5820 5823 5825 5826 5828 5830 5833 5835 5838 5841 5844 5846 5849 5851 5854 5856 5858 5859 5861
5806 5804 5802 5801 5800 5800 5800 5799 5798 5797 5796 5796 5795 5794 5794 5796 5798 5799 5800 5801 5803 5807 5810 5813 5815 5818 5821 5823 5824 5826 5828 5831 5834 5836 5839 5842 5845 5847 5850 5852 5854 5855 5857
5799 5797 5795 5793 5792 5793 5793 5793 5792 5791 5791 5790 5790 5789 5790 5791 5793 5794 5795 5797 5799 5803 5806 5808 5811 5814 5816 5819 5820 5822 5824 5826 5829 5831 5834 5837 5840 5842 5844 5846 5848 5850 5852
5792 5790 5788 5786 5785 5785 5786 5786 5785 5786 5786 5786 5786 5785 5785 5787 5788 5789 5791 5793 5795 5798 5800 5803 5806 5809 5811 5814 5816 5818 5820 5822 5824 5826 5829 5831 5834 5836 5839 5841 5843 5845 5847
5785 5783 5782 5780 5779 5778 5779 5780 5780 5780 5781 5781 5782 5782 5782 5782 5783 5784 5786 5789 5791 5793 5795 5798 5800 5802 5805 5808 5810 5813 5815 5817 5819 5821 5823 5825 5827 5830 5832 5834 5837 5839 5841
5779 5777 5775 5773 5772 5772 5772 5773 5774 5774 5775 5776 5777 5778 5778 5778 5779 5780 5782 5784 5786 5788 5790 5793 5794 5796 5799 5801 5804 5806 5808 5811 5813 5815 5817 5818 5821 5823 5826 5828 5830 5832 5834
5773 5771 5768 5766 5765 5764 5765 5766 5767 5768 5769 5770 5771 5772 5774 5774 5775 5775 5777 5778 5781 5783 5785 5787 5789 5791 5792 5794 5797 5799 5801 5804 5807 5809 5811 5812 5815 5818 5819 5821 5823 5824 5826
5768 5766 5763 5761 5760 5759 5759 5759 5760 5761 5762 5763 5763 5765 5767 5768 5769 5770 5771 5773 5775 5777 5779 5781 5782 5784 5786 5787 5788 5790 5793 5797 5800 5801 5804 5807 5809 5810 5811 5814 5816 5817 5818
5763 5761 5759 5756 5755 5754 5753 5752 5753 5753 5754 5755 5756 5757 5758 5760 5762 5763 5764 5766 5767 5769 5772 5774 5775 5776 5778 5779 5780 5782 5785 5788 5791 5793 5797 5799 5800 5802 5804 5806 5808 5809 5811
5758 5756 5754 5752 5750 5749 5748 5747 5747 5747 5747 5747 5748 5749 5751 5752 5754 5756 5757 5759 5760 5762 5764 5766 5767 5769 5770 5771 5772 5773 5775 5779 5783 5785 5788 5790 5792 5794 5797 5799 5800 5800 5801
5753 5751 5749 5747 5745 5744 5743 5742 5742 5741 5741 5741 5741 5742 5743 5745 5747 5748 5750 5752 5753 5755 5757 5758 5760 5761 5763 5764 5764 5765 5766 5769 5773 5776 5779 5782 5783 5785 5788 5790 5791 5791 5791
5748 5746 5744 5742 5740 5739 5738 5737 5736 5735 5734 5734 5734 5735 5736 5738 5740 5741 5743 5745 5746 5748 5750 5751 5753 5754 5755 5756 5757 5758 5759 5761 5763 5766 5769 5772 5774 5775 5778 5780 5780 5781 5781